Location: Grand Mesa Observatory
(38.9638°N, 108.2379°W)
Time: 23:24:35
(UTC-07:00)

OTV 5 (USA 277) - Visible Passes

Search period start: 09 December 2018 00:00
Search period end: 19 December 2018 00:00
Orbit: 341 x 347 km, 54.5° (Epoch: 09 December)

Date Brightness Start Highest point End Pass type
(mag) Time Alt. Az. Time Alt. Az. Time Alt. Az.
11 Dec ? 06:09:05 10° N 06:10:49 15° NNE 06:12:34 10° ENE visible
12 Dec ? 06:32:02 10° NNW 06:34:43 38° NE 06:37:25 10° ESE visible
13 Dec ? 05:23:36 14° NE 05:23:36 14° NE 05:24:56 10° ENE visible
14 Dec ? 05:46:41 33° NNE 05:47:09 36° NE 05:49:50 10° ESE visible
15 Dec ? 06:09:50 33° WNW 06:10:48 54° SW 06:13:36 10° SSE visible
16 Dec ? 05:01:37 15° E 05:01:37 15° E 05:02:14 10° ESE visible
16 Dec ? 06:33:04 12° W 06:34:14 14° SW 06:35:53 10° SSW visible
17 Dec ? 05:24:55 21° SSE 05:24:55 21° SSE 05:26:04 10° SE visible
18 Dec ? 05:48:19 11° SSW 05:48:19 11° SSW 05:48:27 10° SSW visible
